Lid_Strength_Index
0 0 0 0 -0 0 1 0 -0 -1 -1 -1 -1 -1 -2 -1 -0 -0 0 0 0 1
-0 -0 1 -0 0 -0 -1 -0 -0 -1 -1 -1 -0 -1 -1 -0 -0 -0 -0 0 0 0
0 -0 -0 -1 -1 -0 -0 -1 -0 -0 -0 -0 -1 -1 -1 -0 -0 -0 -0 0 0 0
0 0 -0 -0 -0 -0 -1 -1 -0 -0 -0 -0 -0 -0 -0 -0 -0 -0 0 -0 0 0
1 0 0 0 0 -0 -1 -1 -0 -0 -0 -0 -0 -0 -0 0 0 1 1 0 0 1
1 1 1 0 -0 0 -0 -0 -0 -0 -0 -0 -0 -0 -0 0 0 0 0 0 0 1
1 -0 -0 -0 -0 -0 -0 -0 -0 -0 0 -0 -0 -0 0 0 0 0 0 -0 0 0
1 0 -0 0 -1 -1 -1 -0 -0 -0 -0 -0 -0 2 2 0 0 0 0 -0 -0 -0
1 1 0 0 -0 -0 -0 -1 -1 -0 -0 0 2 7 5 2 0 0 1 1 -0 -0
1 1 1 0 0 0 0 -0 -0 -0 -0 3 4 6 7 4 -0 -1 -0 0 0 1
1 1 1 1 1 0 0 0 0 0 2 3 6 8 8 5 0 -0 -0 0 0 0
1 1 1 1 1 1 1 1 2 2 3 4 6 9 8 3 0 1 0 0 2 1
1 1 1 1 1 1 1 2 2 4 5 6 6 9 9 4 1 1 1 1 3 6
1 1 0 0 0 1 1 2 3 4 5 5 6 8 9 9 6 5 2 1 2 4